Location: San Ignacio Observatory
(34.9291°N, 104.9425°W)
Time: 15:05:25
(UTC-06:00)

Tiangong 2 - Visible Passes

Search period start: 24 March 2019 00:00
Search period end: 03 April 2019 00:00
Orbit: 380 x 390 km, 42.8° (Epoch: 24 March)

Date Brightness Start Highest point End Pass type
(mag) Time Alt. Az. Time Alt. Az. Time Alt. Az.
24 Mar 2.3 06:03:51 20° WSW 06:05:01 26° SW 06:07:41 10° SSE visible
25 Mar 3.5 05:07:50 17° SE 05:07:50 17° SE 05:08:41 10° SE visible
28 Mar 2.6 20:13:49 10° S 20:16:09 19° SE 20:16:24 19° SE visible
29 Mar 1.2 20:50:02 10° WSW 20:52:46 64° SW 20:52:46 64° SW visible
30 Mar 1.7 19:50:45 10° SW 19:53:41 38° SSE 19:56:37 10° ENE visible
30 Mar 3.7 21:27:33 10° W 21:28:57 21° WNW 21:28:57 21° WNW visible
31 Mar 1.6 20:27:45 10° WSW 20:30:49 54° NNW 20:32:41 21° NE visible
01 Apr 3.0 21:05:35 10° WNW 21:08:13 24° NNW 21:08:30 24° N visible
02 Apr 2.6 20:05:37 10° W 20:08:30 33° NNW 20:11:24 10° NE visible
02 Apr 4.3 21:43:30 10° NW 21:44:11 13° NW 21:44:11 13° NW visible
